Craig, CO

4:13 AM MDT on June 28, 2017 (GMT -0600)
Craig-Moffat

Weather History for KCAG - October, 2011

Change the Weather History Date:

Tuesday, October 4, 2011

  Actual Average Record
Temperature  
Mean Temperature 56 °F 48 °F  
Max Temperature 69 °F 66 °F 76 °F (2015)
Min Temperature 46 °F 29 °F 17 °F (1999)
Degree Days  
Heating Degree Days 9 17  
Month to date heating degree days 66  
Since 1 July heating degree days 431  
Cooling Degree Days 0 0  
Month to date cooling degree days 0  
Year to date cooling degree days 142  
Growing Degree Days 6 (Base 50)    
Moisture  
Dew Point 44 °F    
Average Humidity 70    
Maximum Humidity 86    
Minimum Humidity 40    
Precipitation  
Precipitation 0.03 in 0.07 in 1.01 in (2005)
Month to date precipitation 0.26  
Year to date precipitation 12.22  
Sea Level Pressure  
Sea Level Pressure 29.97 in    
Wind  
Wind Speed 7 mph (SE)    
Max Wind Speed 23 mph    
Max Gust Speed 29 mph    
Visibility 10 miles    
Events Rain , Thunderstorm    
T = Trace of Precipitation, MM = Missing Value Source: NWS Daily Summary

Daily Weather History Graph

Daily Weather History Graph

Search for Another Location

Airport or City:

Trip Planner

Search our weather history database for the weather conditions in past years. The results will help you decide how hot, cold, wet, or windy it might be!

Date:

Astronomy

Oct. 04, 2011 Rise Set
Actual Time 7:09 AM MDT 6:47 PM MDT
Civil Twilight 6:42 AM MDT 7:14 PM MDT
Nautical Twilight 6:10 AM MDT 7:46 PM MDT
Astronomical Twilight 5:38 AM MDT 8:18 PM MDT
Moon 2:53 PM MDT (10/4) No Moon Set
Length of Visible Light 12h 32m
Length of Day
11h 38m
First Quarter, 56% of the Moon is Illuminated
Oct 4
First Quarter
Oct 11
Full
Oct 19
Last Quarter
Oct 26
New
Nov 2
First Quarter

Hourly Weather History & Observations

Time (MDT) Temp. Windchill Dew Point Humidity Pressure Visibility Wind Dir Wind Speed Gust Speed Precip Events Conditions
12:53 AM 55.9 °F - 46.0 °F 69% 29.97 in 10.0 mi SSW 5.8 mph - N/A   Overcast
1:53 AM 55.9 °F - 46.0 °F 69% 29.95 in 10.0 mi Calm Calm - N/A   Overcast
2:53 AM 55.0 °F - 46.0 °F 72% 29.94 in 10.0 mi East 4.6 mph - N/A   Overcast
3:53 AM 55.0 °F - 44.1 °F 67% 29.93 in 10.0 mi East 8.1 mph - N/A   Clear
4:53 AM 51.8 °F - 42.8 °F 71% 30.12 in 10.0 mi ESE 5.8 mph - N/A   Mostly Cloudy
5:53 AM 46.9 °F - 42.1 °F 83% 29.97 in 10.0 mi WNW 4.6 mph - N/A   Mostly Cloudy
6:53 AM 46.0 °F - 42.1 °F 86% 29.99 in 10.0 mi Calm Calm - 0.00 in   Partly Cloudy
7:53 AM 46.9 °F - 42.1 °F 83% 30.01 in 10.0 mi Calm Calm - N/A   Partly Cloudy
8:53 AM 51.1 °F - 45.0 °F 80% 30.00 in 10.0 mi Calm Calm - N/A   Mostly Cloudy
9:53 AM 62.6 °F - 42.8 °F 48% 30.13 in 10.0 mi ENE 6.9 mph - N/A   Partly Cloudy
10:53 AM 66.0 °F - 42.1 °F 42% 29.94 in 10.0 mi Calm Calm - N/A   Mostly Cloudy
1:04 PM 66.2 °F - 44.6 °F 46% 30.06 in 10.0 mi West 16.1 mph - N/A   Overcast
1:53 PM 66.9 °F - 42.1 °F 40% 29.86 in 10.0 mi West 19.6 mph 25.3 mph N/A   Overcast
2:53 PM 64.9 °F - 41.0 °F 42% 29.87 in 10.0 mi WSW 20.7 mph 26.5 mph 0.00 in Thunderstorm Overcast
3:13 PM 62.6 °F - 41.0 °F 45% 30.05 in 10.0 mi WSW 23.0 mph 28.8 mph N/A   Overcast
3:53 PM 53.6 °F - 48.2 °F 82% 30.07 in 10.0 mi SSW 18.4 mph 25.3 mph N/A Rain Light Rain
4:53 PM 54.0 °F - 46.9 °F 77% 29.94 in 10.0 mi SSW 8.1 mph - 0.03 in   Overcast
5:53 PM 53.1 °F - 46.0 °F 77% 29.97 in 10.0 mi Variable 3.5 mph - 0.00 in Rain Light Rain
6:53 PM 51.8 °F - 46.4 °F 82% 30.05 in 10.0 mi ENE 8.1 mph - N/A Rain Light Rain
7:53 PM 50.0 °F - 46.0 °F 86% 29.95 in 10.0 mi ESE 15.0 mph 21.9 mph 0.00 in   Mostly Cloudy
8:53 PM 51.1 °F - 44.1 °F 77% 29.91 in 10.0 mi ESE 10.4 mph 16.1 mph N/A   Clear
9:53 PM 48.9 °F - 43.0 °F 80% 29.88 in 10.0 mi ENE 8.1 mph - N/A   Clear
10:53 PM 48.0 °F - 42.1 °F 80% 29.86 in 10.0 mi East 3.5 mph - N/A   Clear
11:53 PM 46.0 °F 43.9 °F 42.1 °F 86% 29.85 in 10.0 mi East 4.6 mph - N/A   Partly Cloudy